Time,TemperatureF,DewpointF,PressureIn,WindDirection,WindDirectionDegrees,WindSpeedMPH,WindSpeedGustMPH,Humidity,HourlyPrecipIn,Conditions,Clouds,dailyrainin,SoftwareType,DateUTC
2013-10-01 00:14:00,53.1,50.0,29.97,SE,134,0.0,0.0,88,0.00,,,0.00,weatherlink.com 1.10,2013-10-01 07:14:00,
2013-10-01 00:29:00,53.0,50.0,29.96,ESE,118,0.0,0.0,88,0.00,,,0.00,weatherlink.com 1.10,2013-10-01 07:29:00,
2013-10-01 00:44:00,52.7,50.0,29.97,SE,125,0.0,0.0,89,0.00,,,0.00,weatherlink.com 1.10,2013-10-01 07:44:00,
2013-10-01 00:59:00,52.2,49.0,29.96,SE,125,0.0,0.0,90,0.00,,,0.00,weatherlink.com 1.10,2013-10-01 07:59:00,
2013-10-01 01:14:00,51.8,49.0,29.96,ESE,121,2.0,3.0,91,0.00,,,0.00,weatherlink.com 1.10,2013-10-01 08:14:00,
2013-10-01 01:29:00,52.0,49.0,29.97,SE,142,0.0,0.0,89,0.00,,,0.00,weatherlink.com 1.10,2013-10-01 08:29:00,
2013-10-01 01:45:00,52.1,49.0,29.96,SE,126,0.0,0.0,88,0.00,,,0.00,weatherlink.com 1.10,2013-10-01 08:45:00,
2013-10-01 01:59:00,51.3,48.0,29.97,SE,125,0.0,0.0,88,0.00,,,0.00,weatherlink.com 1.10,2013-10-01 08:59:00,
2013-10-01 02:14:00,50.2,47.0,29.97,SE,125,0.0,0.0,89,0.00,,,0.00,weatherlink.com 1.10,2013-10-01 09:14:00,
2013-10-01 02:29:00,49.6,47.0,29.96,SE,125,0.0,0.0,91,0.00,,,0.00,weatherlink.com 1.10,2013-10-01 09:29:00,
2013-10-01 02:44:00,48.6,46.0,29.96,SE,125,0.0,0.0,92,0.00,,,0.00,weatherlink.com 1.10,2013-10-01 09:44:00,
2013-10-01 02:59:00,47.7,46.0,29.96,SE,125,0.0,0.0,92,0.00,,,0.00,weatherlink.com 1.10,2013-10-01 09:59:00,
2013-10-01 03:14:00,47.9,46.0,29.95,SE,125,0.0,0.0,93,0.00,,,0.00,weatherlink.com 1.10,2013-10-01 10:14:00,
2013-10-01 03:29:00,48.0,46.0,29.95,SE,125,0.0,0.0,93,0.00,,,0.00,weatherlink.com 1.10,2013-10-01 10:29:00,
2013-10-01 03:44:00,47.9,46.0,29.95,SE,125,0.0,0.0,93,0.00,,,0.00,weatherlink.com 1.10,2013-10-01 10:44:00,
2013-10-01 03:59:00,48.1,46.0,29.95,ESE,121,0.0,0.0,93,0.00,,,0.00,weatherlink.com 1.10,2013-10-01 10:59:00,
2013-10-01 04:14:00,47.8,46.0,29.95,NE,44,0.0,0.0,93,0.00,,,0.00,weatherlink.com 1.10,2013-10-01 11:14:00,
2013-10-01 04:29:00,48.0,46.0,29.95,ENE,77,0.0,0.0,94,0.00,,,0.00,weatherlink.com 1.10,2013-10-01 11:29:00,
2013-10-01 04:45:00,47.7,46.0,29.95,East,92,0.0,0.0,93,0.00,,,0.00,weatherlink.com 1.10,2013-10-01 11:45:00,
2013-10-01 05:00:00,47.3,46.0,29.95,ENE,75,0.0,0.0,94,0.00,,,0.00,weatherlink.com 1.10,2013-10-01 12:00:00,
2013-10-01 05:15:00,46.4,45.0,29.96,NE,42,0.0,0.0,94,0.00,,,0.00,weatherlink.com 1.10,2013-10-01 12:15:00,
2013-10-01 05:30:00,46.3,45.0,29.96,NE,43,0.0,0.0,95,0.00,,,0.00,weatherlink.com 1.10,2013-10-01 12:30:00,
2013-10-01 05:45:00,46.7,46.0,29.96,NE,42,0.0,0.0,96,0.00,,,0.00,weatherlink.com 1.10,2013-10-01 12:45:00,
2013-10-01 06:00:00,46.1,45.0,29.96,NE,41,0.0,0.0,95,0.00,,,0.00,weatherlink.com 1.10,2013-10-01 13:00:00,
2013-10-01 06:15:00,45.6,44.0,29.96,NE,41,0.0,0.0,95,0.00,,,0.00,weatherlink.com 1.10,2013-10-01 13:15:00,
2013-10-01 06:30:00,46.0,45.0,29.97,NE,46,0.0,0.0,96,0.00,,,0.00,weatherlink.com 1.10,2013-10-01 13:30:00,
2013-10-01 06:45:00,45.6,45.0,29.97,NNE,21,0.0,0.0,96,0.00,,,0.00,weatherlink.com 1.10,2013-10-01 13:45:00,
2013-10-01 07:00:00,46.4,46.0,29.97,NNE,23,0.0,0.0,97,0.00,,,0.00,weatherlink.com 1.10,2013-10-01 14:00:00,
2013-10-01 07:15:00,46.2,45.0,29.97,NNE,23,0.0,0.0,96,0.00,,,0.00,weatherlink.com 1.10,2013-10-01 14:15:00,
2013-10-01 07:30:00,46.1,45.0,29.98,NNE,23,0.0,0.0,96,0.00,,,0.00,weatherlink.com 1.10,2013-10-01 14:30:00,
2013-10-01 07:45:00,46.1,45.0,29.98,NNE,23,0.0,0.0,96,0.00,,,0.00,weatherlink.com 1.10,2013-10-01 14:45:00,
2013-10-01 08:00:00,47.9,47.0,29.98,NNE,23,0.0,0.0,97,0.00,,,0.00,weatherlink.com 1.10,2013-10-01 15:00:00,
2013-10-01 08:15:00,49.3,48.0,29.99,NNE,22,0.0,0.0,96,0.00,,,0.00,weatherlink.com 1.10,2013-10-01 15:15:00,
2013-10-01 08:30:00,51.5,50.0,29.99,North,11,0.0,0.0,96,0.00,,,0.00,weatherlink.com 1.10,2013-10-01 15:30:00,
2013-10-01 08:45:00,53.8,52.0,29.99,West,266,0.0,0.0,93,0.00,,,0.00,weatherlink.com 1.10,2013-10-01 15:45:00,
2013-10-01 09:00:00,56.4,53.0,30.00,SW,233,0.0,0.0,89,0.00,,,0.00,weatherlink.com 1.10,2013-10-01 16:00:00,
2013-10-01 09:15:00,58.5,53.0,30.00,SW,228,0.0,0.0,82,0.00,,,0.00,weatherlink.com 1.10,2013-10-01 16:15:00,
2013-10-01 09:30:00,58.4,52.0,30.00,North,6,0.0,4.0,79,0.00,,,0.00,weatherlink.com 1.10,2013-10-01 16:30:00,
2013-10-01 09:45:00,59.2,52.0,30.00,North,352,5.0,8.0,76,0.00,,,0.00,weatherlink.com 1.10,2013-10-01 16:45:00,
2013-10-01 10:00:00,59.9,51.0,30.00,North,352,0.0,8.0,73,0.00,,,0.00,weatherlink.com 1.10,2013-10-01 17:00:00,
2013-10-01 10:15:00,60.9,52.0,30.00,NNE,30,5.0,7.0,73,0.00,,,0.00,weatherlink.com 1.10,2013-10-01 17:15:00,
2013-10-01 10:30:00,62.0,51.0,30.00,NW,315,4.0,10.0,68,0.00,,,0.00,weatherlink.com 1.10,2013-10-01 17:30:00,
2013-10-01 10:45:00,62.0,52.0,30.00,West,276,0.0,8.0,70,0.00,,,0.00,weatherlink.com 1.10,2013-10-01 17:45:00,
2013-10-01 11:00:00,63.3,52.0,30.00,North,11,1.0,8.0,67,0.00,,,0.00,weatherlink.com 1.10,2013-10-01 18:00:00,
2013-10-01 11:15:00,64.4,53.0,30.00,NE,51,2.0,6.0,67,0.00,,,0.00,weatherlink.com 1.10,2013-10-01 18:15:00,
2013-10-01 11:31:00,65.7,53.0,30.00,North,357,2.0,6.0,64,0.00,,,0.00,weatherlink.com 1.10,2013-10-01 18:31:00,
2013-10-01 11:46:00,66.0,52.0,29.99,WSW,239,3.0,6.0,62,0.00,,,0.00,weatherlink.com 1.10,2013-10-01 18:46:00,
2013-10-01 12:01:00,68.4,52.0,29.99,ESE,108,0.0,5.0,56,0.00,,,0.00,weatherlink.com 1.10,2013-10-01 19:01:00,
2013-10-01 12:16:00,69.7,51.0,29.98,NNE,16,3.0,7.0,52,0.00,,,0.00,weatherlink.com 1.10,2013-10-01 19:16:00,
2013-10-01 12:31:00,70.1,51.0,29.98,NNW,334,3.0,6.0,51,0.00,,,0.00,weatherlink.com 1.10,2013-10-01 19:31:00,
2013-10-01 12:46:00,71.5,51.0,29.97,West,278,1.0,5.0,48,0.00,,,0.00,weatherlink.com 1.10,2013-10-01 19:46:00,
2013-10-01 13:01:00,72.8,51.0,29.97,NW,323,0.0,4.0,47,0.00,,,0.00,weatherlink.com 1.10,2013-10-01 20:01:00,
2013-10-01 13:31:00,74.1,50.0,29.96,SW,236,1.0,6.0,43,0.00,,,0.00,weatherlink.com 1.10,2013-10-01 20:31:00,
2013-10-01 13:46:00,73.4,49.0,29.96,NE,42,4.0,7.0,43,0.00,,,0.00,weatherlink.com 1.10,2013-10-01 20:46:00,
2013-10-01 14:01:00,75.4,51.0,29.95,NNW,338,0.0,5.0,42,0.00,,,0.00,weatherlink.com 1.10,2013-10-01 21:01:00,
2013-10-01 14:16:00,76.0,50.0,29.94,North,357,1.0,5.0,40,0.00,,,0.00,weatherlink.com 1.10,2013-10-01 21:16:00,
2013-10-01 14:31:00,76.6,50.0,29.94,WSW,240,0.0,4.0,40,0.00,,,0.00,weatherlink.com 1.10,2013-10-01 21:31:00,
2013-10-01 14:46:00,77.4,49.0,29.93,WNW,298,0.0,5.0,37,0.00,,,0.00,weatherlink.com 1.10,2013-10-01 21:46:00,
2013-10-01 15:01:00,78.1,50.0,29.93,SSW,195,0.0,5.0,37,0.00,,,0.00,weatherlink.com 1.10,2013-10-01 22:01:00,
2013-10-01 15:16:00,78.2,50.0,29.93,NNE,18,0.0,7.0,37,0.00,,,0.00,weatherlink.com 1.10,2013-10-01 22:16:00,
2013-10-01 15:31:00,79.6,50.0,29.92,NW,309,1.0,4.0,36,0.00,,,0.00,weatherlink.com 1.10,2013-10-01 22:31:00,
2013-10-01 15:46:00,79.5,50.0,29.92,SW,224,1.0,6.0,35,0.00,,,0.00,weatherlink.com 1.10,2013-10-01 22:46:00,
2013-10-01 16:01:00,80.0,49.0,29.91,WNW,290,1.0,5.0,34,0.00,,,0.00,weatherlink.com 1.10,2013-10-01 23:01:00,
2013-10-01 16:16:00,80.2,50.0,29.91,West,271,2.0,6.0,35,0.00,,,0.00,weatherlink.com 1.10,2013-10-01 23:16:00,
2013-10-01 16:31:00,80.3,49.0,29.90,NNE,16,0.0,4.0,34,0.00,,,0.00,weatherlink.com 1.10,2013-10-01 23:31:00,
2013-10-01 16:46:00,79.9,50.0,29.90,NW,326,2.0,6.0,35,0.00,,,0.00,weatherlink.com 1.10,2013-10-01 23:46:00,
2013-10-01 17:02:00,79.5,52.0,29.89,SW,217,6.0,8.0,38,0.00,,,0.00,weatherlink.com 1.10,2013-10-02 00:02:00,
2013-10-01 17:17:00,77.4,52.0,29.89,South,191,7.0,10.0,41,0.00,,,0.00,weatherlink.com 1.10,2013-10-02 00:17:00,
2013-10-01 17:32:00,76.4,52.0,29.90,SW,221,6.0,9.0,42,0.00,,,0.00,weatherlink.com 1.10,2013-10-02 00:32:00,
2013-10-01 17:47:00,75.5,52.0,29.90,SSW,205,4.0,10.0,44,0.00,,,0.00,weatherlink.com 1.10,2013-10-02 00:47:00,
2013-10-01 18:02:00,74.8,51.0,29.90,SSW,211,3.0,7.0,44,0.00,,,0.00,weatherlink.com 1.10,2013-10-02 01:02:00,
2013-10-01 18:17:00,74.0,51.0,29.90,South,191,4.0,7.0,45,0.00,,,0.00,weatherlink.com 1.10,2013-10-02 01:17:00,
2013-10-01 18:32:00,73.3,51.0,29.89,SSW,210,4.0,7.0,46,0.00,,,0.00,weatherlink.com 1.10,2013-10-02 01:32:00,
2013-10-01 18:47:00,71.8,51.0,29.90,West,259,3.0,7.0,48,0.00,,,0.00,weatherlink.com 1.10,2013-10-02 01:47:00,
2013-10-01 19:02:00,70.5,51.0,29.90,NW,315,0.0,4.0,51,0.00,,,0.00,weatherlink.com 1.10,2013-10-02 02:02:00,
2013-10-01 19:17:00,70.3,50.0,29.90,NW,320,0.0,7.0,49,0.00,,,0.00,weatherlink.com 1.10,2013-10-02 02:17:00,
2013-10-01 19:32:00,69.1,50.0,29.90,NNW,327,3.0,7.0,51,0.00,,,0.00,weatherlink.com 1.10,2013-10-02 02:32:00,
2013-10-01 19:47:00,68.4,50.0,29.91,NNW,327,0.0,7.0,52,0.00,,,0.00,weatherlink.com 1.10,2013-10-02 02:47:00,
2013-10-01 20:02:00,67.5,50.0,29.91,NW,322,2.0,8.0,54,0.00,,,0.00,weatherlink.com 1.10,2013-10-02 03:02:00,
2013-10-01 20:17:00,66.6,50.0,29.92,NNW,331,1.0,5.0,55,0.00,,,0.00,weatherlink.com 1.10,2013-10-02 03:17:00,
2013-10-01 20:32:00,65.8,49.0,29.92,NNW,331,11.0,11.0,56,0.00,,,0.00,weatherlink.com 1.10,2013-10-02 03:32:00,
2013-10-01 20:47:00,65.2,49.0,29.93,NW,310,4.0,9.0,57,0.00,,,0.00,weatherlink.com 1.10,2013-10-02 03:47:00,
2013-10-01 21:02:00,64.6,50.0,29.93,North,352,4.0,7.0,59,0.00,,,0.00,weatherlink.com 1.10,2013-10-02 04:02:00,
2013-10-01 21:17:00,64.0,50.0,29.93,North,10,0.0,4.0,60,0.00,,,0.00,weatherlink.com 1.10,2013-10-02 04:17:00,
2013-10-01 21:32:00,62.7,49.0,29.93,NE,36,0.0,0.0,62,0.00,,,0.00,weatherlink.com 1.10,2013-10-02 04:32:00,
2013-10-01 21:47:00,61.5,50.0,29.93,ESE,113,0.0,0.0,65,0.00,,,0.00,weatherlink.com 1.10,2013-10-02 04:47:00,
2013-10-01 22:02:00,60.9,49.0,29.93,SE,141,0.0,0.0,66,0.00,,,0.00,weatherlink.com 1.10,2013-10-02 05:02:00,
2013-10-01 22:17:00,60.7,49.0,29.94,ESE,105,0.0,0.0,66,0.00,,,0.00,weatherlink.com 1.10,2013-10-02 05:17:00,
2013-10-01 22:32:00,60.3,49.0,29.94,NNE,19,0.0,0.0,67,0.00,,,0.00,weatherlink.com 1.10,2013-10-02 05:32:00,
2013-10-01 22:47:00,59.7,49.0,29.94,SE,124,0.0,0.0,68,0.00,,,0.00,weatherlink.com 1.10,2013-10-02 05:47:00,
2013-10-01 23:02:00,59.5,49.0,29.93,NE,36,0.0,0.0,69,0.00,,,0.00,weatherlink.com 1.10,2013-10-02 06:02:00,
2013-10-01 23:17:00,58.7,49.0,29.93,NE,38,0.0,0.0,70,0.00,,,0.00,weatherlink.com 1.10,2013-10-02 06:17:00,
2013-10-01 23:32:00,57.8,49.0,29.93,ESE,117,0.0,0.0,73,0.00,,,0.00,weatherlink.com 1.10,2013-10-02 06:32:00,
2013-10-01 23:47:00,57.0,49.0,29.93,ESE,121,0.0,0.0,74,0.00,,,0.00,weatherlink.com 1.10,2013-10-02 06:47:00,